Time,TemperatureF,DewpointF,PressureIn,WindDirection,WindDirectionDegrees,WindSpeedMPH,WindSpeedGustMPH,Humidity,HourlyPrecipIn,Conditions,Clouds,dailyrainin,SolarRadiationWatts/m^2,SoftwareType,DateUTC
2013-02-28 00:02:00,40.0,35.0,-100.00,NNE,17,5.0,12.0,81,0.00,,,0.00,0.000000,,2013-02-28 05:02:00,
2013-02-28 00:32:00,41.0,28.0,-100.00,WNW,288,5.0,16.0,59,0.00,,,0.00,0.000000,,2013-02-28 05:32:00,
2013-02-28 00:43:00,41.0,28.0,-100.00,WNW,288,5.0,16.0,59,0.00,,,0.00,0.000000,,2013-02-28 05:43:00,
2013-02-28 00:52:00,41.0,28.0,-100.00,WNW,288,5.0,16.0,59,0.00,,,0.00,0.000000,,2013-02-28 05:52:00,
2013-02-28 01:01:00,41.0,28.0,-100.00,WNW,288,5.0,16.0,59,0.00,,,0.00,0.000000,,2013-02-28 06:01:00,
2013-02-28 01:32:00,40.0,25.0,-100.00,WNW,300,6.0,24.0,54,0.00,,,0.00,0.000000,,2013-02-28 06:32:00,
2013-02-28 01:42:00,40.0,25.0,-100.00,WNW,300,6.0,24.0,54,0.00,,,0.00,0.000000,,2013-02-28 06:42:00,
2013-02-28 01:52:00,40.0,25.0,-100.00,WNW,300,6.0,24.0,54,0.00,,,0.00,0.000000,,2013-02-28 06:52:00,
2013-02-28 02:01:00,40.0,25.0,-100.00,WNW,300,6.0,24.0,54,0.00,,,0.00,0.000000,,2013-02-28 07:01:00,
2013-02-28 02:32:00,38.0,22.0,-100.00,NW,308,9.0,14.0,53,0.00,,,0.00,0.000000,,2013-02-28 07:32:00,
2013-02-28 02:42:00,38.0,22.0,-100.00,NW,308,9.0,14.0,53,0.00,,,0.00,0.000000,,2013-02-28 07:42:00,
2013-02-28 02:52:00,38.0,22.0,-100.00,NW,308,9.0,14.0,53,0.00,,,0.00,0.000000,,2013-02-28 07:52:00,
2013-02-28 03:01:00,38.0,22.0,-100.00,NW,308,9.0,14.0,53,0.00,,,0.00,0.000000,,2013-02-28 08:01:00,
2013-02-28 03:32:00,38.0,23.0,-100.00,NW,308,9.0,19.0,55,0.00,,,0.00,0.000000,,2013-02-28 08:32:00,
2013-02-28 03:42:00,38.0,23.0,-100.00,NW,308,9.0,19.0,55,0.00,,,0.00,0.000000,,2013-02-28 08:42:00,
2013-02-28 03:53:00,38.0,23.0,-100.00,NW,308,9.0,19.0,55,0.00,,,0.00,0.000000,,2013-02-28 08:53:00,
2013-02-28 04:03:00,38.0,23.0,-100.00,NW,308,9.0,19.0,55,0.00,,,0.00,0.000000,,2013-02-28 09:03:00,
2013-02-28 04:32:00,36.0,22.0,-100.00,West,267,8.0,22.0,56,0.00,,,0.00,0.000000,,2013-02-28 09:32:00,
2013-02-28 04:42:00,36.0,22.0,-100.00,West,267,8.0,22.0,56,0.00,,,0.00,0.000000,,2013-02-28 09:42:00,
2013-02-28 04:53:00,36.0,22.0,-100.00,West,267,8.0,22.0,56,0.00,,,0.00,0.000000,,2013-02-28 09:53:00,
2013-02-28 05:02:00,36.0,22.0,-100.00,West,267,8.0,22.0,56,0.00,,,0.00,0.000000,,2013-02-28 10:02:00,
2013-02-28 05:32:00,35.0,22.0,-100.00,WNW,290,6.0,19.0,58,0.00,,,0.00,0.000000,,2013-02-28 10:32:00,
2013-02-28 05:42:00,35.0,22.0,-100.00,WNW,290,6.0,19.0,58,0.00,,,0.00,0.000000,,2013-02-28 10:42:00,
2013-02-28 05:52:00,35.0,22.0,-100.00,WNW,290,6.0,19.0,58,0.00,,,0.00,0.000000,,2013-02-28 10:52:00,
2013-02-28 06:02:00,35.0,22.0,-100.00,WNW,290,6.0,19.0,58,0.00,,,0.00,0.000000,,2013-02-28 11:02:00,
2013-02-28 06:32:00,35.0,20.0,-100.00,NW,311,6.0,12.0,53,0.00,,,0.00,0.000000,,2013-02-28 11:32:00,
2013-02-28 06:42:00,35.0,20.0,-100.00,NW,311,6.0,12.0,53,0.00,,,0.00,0.000000,,2013-02-28 11:42:00,
2013-02-28 06:53:00,35.0,20.0,-100.00,NW,311,6.0,12.0,53,0.00,,,0.00,0.000000,,2013-02-28 11:53:00,
2013-02-28 07:02:00,35.0,20.0,-100.00,NW,311,6.0,12.0,53,0.00,,,0.00,0.000000,,2013-02-28 12:02:00,
2013-02-28 07:32:00,35.0,21.0,-100.00,NW,320,7.0,13.0,56,0.00,,,0.00,0.000000,,2013-02-28 12:32:00,
2013-02-28 07:42:00,35.0,21.0,-100.00,NW,320,7.0,13.0,56,0.00,,,0.00,0.000000,,2013-02-28 12:42:00,
2013-02-28 07:53:00,35.0,21.0,-100.00,NW,320,7.0,13.0,56,0.00,,,0.00,0.000000,,2013-02-28 12:53:00,
2013-02-28 08:02:00,35.0,21.0,-100.00,NW,320,7.0,13.0,56,0.00,,,0.00,0.000000,,2013-02-28 13:02:00,
2013-02-28 08:32:00,35.0,22.0,-100.00,NW,315,8.0,12.0,58,0.00,,,0.00,21.000000,,2013-02-28 13:32:00,
2013-02-28 08:42:00,35.0,22.0,-100.00,NW,315,8.0,12.0,58,0.00,,,0.00,21.000000,,2013-02-28 13:42:00,
2013-02-28 08:52:00,35.0,22.0,-100.00,NW,315,8.0,12.0,58,0.00,,,0.00,21.000000,,2013-02-28 13:52:00,
2013-02-28 09:02:00,35.0,22.0,-100.00,NW,315,8.0,12.0,58,0.00,,,0.00,21.000000,,2013-02-28 14:02:00,
2013-02-28 09:32:00,35.0,23.0,-100.00,WNW,299,5.0,14.0,60,0.00,,,0.00,69.000000,,2013-02-28 14:32:00,
2013-02-28 09:42:00,35.0,23.0,-100.00,WNW,299,5.0,14.0,60,0.00,,,0.00,69.000000,,2013-02-28 14:42:00,
2013-02-28 09:52:00,35.0,23.0,-100.00,WNW,299,5.0,14.0,60,0.00,,,0.00,69.000000,,2013-02-28 14:52:00,
2013-02-28 10:02:00,35.0,23.0,-100.00,WNW,299,5.0,14.0,60,0.00,,,0.00,69.000000,,2013-02-28 15:02:00,
2013-02-28 10:32:00,35.0,24.0,-100.00,NW,323,7.0,14.0,63,0.00,,,0.00,86.000000,,2013-02-28 15:32:00,
2013-02-28 10:42:00,35.0,24.0,-100.00,NW,323,7.0,14.0,63,0.00,,,0.00,86.000000,,2013-02-28 15:42:00,
2013-02-28 10:52:00,35.0,24.0,-100.00,NW,323,7.0,14.0,63,0.00,,,0.00,86.000000,,2013-02-28 15:52:00,
2013-02-28 11:02:00,35.0,24.0,-100.00,NW,323,7.0,14.0,63,0.00,,,0.00,86.000000,,2013-02-28 16:02:00,
2013-02-28 11:32:00,36.0,21.0,-100.00,NW,312,9.0,19.0,55,0.00,,,0.00,115.000000,,2013-02-28 16:32:00,
2013-02-28 11:43:00,36.0,21.0,-100.00,NW,312,9.0,19.0,55,0.00,,,0.00,115.000000,,2013-02-28 16:43:00,
2013-02-28 11:53:00,36.0,21.0,-100.00,NW,312,9.0,19.0,55,0.00,,,0.00,115.000000,,2013-02-28 16:53:00,
2013-02-28 12:02:00,36.0,21.0,-100.00,NW,312,9.0,19.0,55,0.00,,,0.00,115.000000,,2013-02-28 17:02:00,
2013-02-28 12:32:00,36.0,22.0,-100.00,NNW,343,7.0,16.0,57,0.00,,,0.00,182.000000,,2013-02-28 17:32:00,
2013-02-28 12:42:00,36.0,22.0,-100.00,NNW,343,7.0,16.0,57,0.00,,,0.00,182.000000,,2013-02-28 17:42:00,
2013-02-28 12:53:00,36.0,22.0,-100.00,NNW,343,7.0,16.0,57,0.00,,,0.00,182.000000,,2013-02-28 17:53:00,
2013-02-28 13:02:00,36.0,22.0,-100.00,NNW,343,7.0,16.0,57,0.00,,,0.00,182.000000,,2013-02-28 18:02:00,
2013-02-28 13:32:00,35.0,25.0,-100.00,NNE,26,9.0,17.0,66,0.00,,,0.00,286.000000,,2013-02-28 18:32:00,
2013-02-28 13:42:00,35.0,25.0,-100.00,NNE,26,9.0,17.0,66,0.00,,,0.00,286.000000,,2013-02-28 18:42:00,
2013-02-28 13:52:00,35.0,25.0,-100.00,NNE,26,9.0,17.0,66,0.00,,,0.00,286.000000,,2013-02-28 18:52:00,
2013-02-28 14:02:00,35.0,25.0,-100.00,NNE,26,9.0,17.0,66,0.00,,,0.00,286.000000,,2013-02-28 19:02:00,
2013-02-28 14:32:00,34.0,24.0,-100.00,NNE,12,9.0,17.0,67,0.00,,,0.00,283.000000,,2013-02-28 19:32:00,
2013-02-28 14:42:00,34.0,24.0,-100.00,NNE,12,9.0,17.0,67,0.00,,,0.00,283.000000,,2013-02-28 19:42:00,
2013-02-28 14:52:00,34.0,24.0,-100.00,NNE,12,9.0,17.0,67,0.00,,,0.00,283.000000,,2013-02-28 19:52:00,
2013-02-28 15:01:00,34.0,24.0,-100.00,NNE,12,9.0,17.0,67,0.00,,,0.00,283.000000,,2013-02-28 20:01:00,
2013-02-28 15:32:00,34.0,23.0,-100.00,North,9,6.0,15.0,64,0.00,,,0.00,159.000000,,2013-02-28 20:32:00,
2013-02-28 15:42:00,34.0,23.0,-100.00,North,9,6.0,15.0,64,0.00,,,0.00,159.000000,,2013-02-28 20:42:00,
2013-02-28 15:52:00,34.0,23.0,-100.00,North,9,6.0,15.0,64,0.00,,,0.00,159.000000,,2013-02-28 20:52:00,
2013-02-28 16:02:00,34.0,23.0,-100.00,North,9,6.0,15.0,64,0.00,,,0.00,159.000000,,2013-02-28 21:02:00,
2013-02-28 16:32:00,35.0,23.0,-100.00,NW,324,4.0,10.0,61,0.00,,,0.00,98.000000,,2013-02-28 21:32:00,
2013-02-28 16:42:00,35.0,23.0,-100.00,NW,324,4.0,10.0,61,0.00,,,0.00,98.000000,,2013-02-28 21:42:00,
2013-02-28 16:52:00,35.0,23.0,-100.00,NW,324,4.0,10.0,61,0.00,,,0.00,98.000000,,2013-02-28 21:52:00,
2013-02-28 17:02:00,35.0,23.0,-100.00,NW,324,4.0,10.0,61,0.00,,,0.00,98.000000,,2013-02-28 22:02:00,
2013-02-28 17:32:00,35.0,22.0,-100.00,NNW,343,6.0,13.0,58,0.00,,,0.00,71.000000,,2013-02-28 22:32:00,
2013-02-28 17:42:00,35.0,22.0,-100.00,NNW,343,6.0,13.0,58,0.00,,,0.00,71.000000,,2013-02-28 22:42:00,
2013-02-28 17:52:00,35.0,22.0,-100.00,NNW,343,6.0,13.0,58,0.00,,,0.00,71.000000,,2013-02-28 22:52:00,
2013-02-28 18:02:00,35.0,22.0,-100.00,NNW,343,6.0,13.0,58,0.00,,,0.00,71.000000,,2013-02-28 23:02:00,
2013-02-28 18:32:00,33.0,21.0,-100.00,North,358,5.0,14.0,60,0.00,,,0.00,22.000000,,2013-02-28 23:32:00,
2013-02-28 18:42:00,33.0,21.0,-100.00,North,358,5.0,14.0,60,0.00,,,0.00,22.000000,,2013-02-28 23:42:00,
2013-02-28 18:53:00,33.0,21.0,-100.00,North,358,5.0,14.0,60,0.00,,,0.00,22.000000,,2013-02-28 23:53:00,
2013-02-28 19:02:00,33.0,21.0,-100.00,North,358,5.0,14.0,60,0.00,,,0.00,22.000000,,2013-03-01 00:02:00,
2013-02-28 19:32:00,32.0,21.0,-100.00,North,350,6.0,15.0,63,0.00,,,0.00,1.000000,,2013-03-01 00:32:00,
2013-02-28 19:42:00,32.0,21.0,-100.00,North,350,6.0,15.0,63,0.00,,,0.00,1.000000,,2013-03-01 00:42:00,
2013-02-28 19:52:00,32.0,21.0,-100.00,North,350,6.0,15.0,63,0.00,,,0.00,1.000000,,2013-03-01 00:52:00,
2013-02-28 20:01:00,32.0,21.0,-100.00,North,350,6.0,15.0,63,0.00,,,0.00,1.000000,,2013-03-01 01:01:00,
2013-02-28 20:32:00,32.0,21.0,-100.00,NW,322,6.0,14.0,63,0.00,,,0.00,0.000000,,2013-03-01 01:32:00,
2013-02-28 20:42:00,32.0,21.0,-100.00,NW,322,6.0,14.0,63,0.00,,,0.00,0.000000,,2013-03-01 01:42:00,
2013-02-28 20:52:00,32.0,21.0,-100.00,NW,322,6.0,14.0,63,0.00,,,0.00,0.000000,,2013-03-01 01:52:00,
2013-02-28 21:01:00,32.0,21.0,-100.00,NW,322,6.0,14.0,63,0.00,,,0.00,0.000000,,2013-03-01 02:01:00,
2013-02-28 21:32:00,32.0,21.0,-100.00,North,355,5.0,10.0,63,0.00,,,0.00,0.000000,,2013-03-01 02:32:00,
2013-02-28 21:42:00,32.0,21.0,-100.00,North,355,5.0,10.0,63,0.00,,,0.00,0.000000,,2013-03-01 02:42:00,
2013-02-28 21:52:00,32.0,21.0,-100.00,North,355,5.0,10.0,63,0.00,,,0.00,0.000000,,2013-03-01 02:52:00,
2013-02-28 22:02:00,32.0,21.0,-100.00,North,355,5.0,10.0,63,0.00,,,0.00,0.000000,,2013-03-01 03:02:00,
2013-02-28 22:32:00,32.0,20.0,-100.00,ENE,61,4.0,12.0,62,0.00,,,0.00,0.000000,,2013-03-01 03:32:00,
2013-02-28 22:42:00,32.0,20.0,-100.00,ENE,61,4.0,12.0,62,0.00,,,0.00,0.000000,,2013-03-01 03:42:00,
2013-02-28 22:52:00,32.0,20.0,-100.00,ENE,61,4.0,12.0,62,0.00,,,0.00,0.000000,,2013-03-01 03:52:00,
2013-02-28 23:01:00,32.0,20.0,-100.00,ENE,61,4.0,12.0,62,0.00,,,0.00,0.000000,,2013-03-01 04:01:00,
2013-02-28 23:42:00,32.0,22.0,-100.00,North,359,2.0,9.0,67,0.00,,,0.00,0.000000,,2013-03-01 04:42:00,
2013-02-28 23:52:00,32.0,22.0,-100.00,North,359,2.0,9.0,67,0.00,,,0.00,0.000000,,2013-03-01 04:52:00,